Oslo Airport, Norway

2:47 AM CEST on April 24, 2017 (GMT +0200)
Gardermoen

Weather History for ENGM - September, 2013

Change the Weather History Date:

Tuesday, September 3, 2013

  Actual Average Record
Temperature  
Mean Temperature 56 °F -  
Max Temperature 69 °F 57 °F 71 °F (1999)
Min Temperature 42 °F 42 °F 35 °F (1998)
Degree Days  
Heating Degree Days 10    
Growing Degree Days 6 (Base 50)    
Moisture  
Dew Point 46 °F    
Average Humidity 69    
Maximum Humidity 94    
Minimum Humidity 36    
Precipitation  
Precipitation 0.00 in 0.13 in - ()
Sea Level Pressure  
Sea Level Pressure 30.06 in    
Wind  
Wind Speed 3 mph ()    
Max Wind Speed 9 mph    
Max Gust Speed -    
Visibility 6.2 miles    
Events      
Averages and records for this station are not official NWS values.
T = Trace of Precipitation, MM = Missing Value Source: Averaged Metar Reports

Daily Weather History Graph

Daily Weather History Graph

Search for Another Location

Airport or City:

Trip Planner

Search our weather history database for the weather conditions in past years. The results will help you decide how hot, cold, wet, or windy it might be!

Date:

Astronomy

Sep. 03, 2013 Rise Set
Actual Time 6:14 AM CEST 8:13 PM CEST
Civil Twilight 5:30 AM CEST 8:58 PM CEST
Nautical Twilight 4:32 AM CEST 9:55 PM CEST
Astronomical Twilight 3:18 AM CEST 11:07 PM CEST
Moon 3:55 AM CEST (9/3) 6:59 PM CEST (9/3)
Length of Visible Light 15h 27m
Length of Day
13h 58m
Waning Crescent, 4% of the Moon is Illuminated
Sep 3
Waning Crescent
Sep 5
New
Sep 12
First Quarter
Sep 19
Full
Sep 27
Last Quarter

Hourly Weather History & Observations

Time (CEST) Temp. Windchill Dew Point Humidity Pressure Visibility Wind Dir Wind Speed Gust Speed Precip Events Conditions
12:20 AM 48.2 °F - 41.0 °F 76% 29.92 in - North 3.5 mph - N/A   Clear
12:50 AM 48.2 °F - 41.0 °F 76% 29.92 in - Variable 2.3 mph - N/A   Clear
1:20 AM 46.4 °F - 41.0 °F 81% 29.95 in - Variable 2.3 mph - N/A   Clear
1:50 AM 46.4 °F - 41.0 °F 81% 29.95 in - Variable 1.2 mph - N/A   Clear
2:00 AM - - - %  in 47 mi NE 2.2 mph - -   Partly Cloudy
2:20 AM 46.4 °F 45.2 °F 39.2 °F 76% 29.95 in - NNE 3.5 mph - N/A   Clear
2:50 AM 44.6 °F - 39.2 °F 81% 29.95 in - North 2.3 mph - N/A   Clear
3:20 AM 44.6 °F - 39.2 °F 81% 29.98 in - Calm Calm - N/A   Clear
3:50 AM 44.6 °F - 39.2 °F 81% 29.98 in - North 1.2 mph - N/A   Clear
4:20 AM 44.6 °F - 39.2 °F 81% 29.98 in - Calm Calm - N/A   Clear
4:50 AM 44.6 °F - 39.2 °F 81% 29.98 in - NNE 1.2 mph - N/A   Clear
5:20 AM 44.6 °F - 41.0 °F 87% 30.01 in - Calm Calm - N/A   Clear
5:50 AM 44.6 °F - 41.0 °F 87% 30.01 in - Calm Calm - N/A   Clear
6:20 AM 42.8 °F - 39.2 °F 87% 30.01 in - Calm Calm - N/A   Clear
6:50 AM 42.8 °F - 39.2 °F 87% 30.01 in - Variable 1.2 mph - N/A   Clear
7:20 AM 44.6 °F - 41.0 °F 87% 30.04 in - Calm Calm - N/A   Clear
7:50 AM 46.4 °F - 42.8 °F 87% 30.04 in - Calm Calm - N/A   Clear
8:20 AM 50.0 °F - 42.8 °F 76% 30.06 in - Variable 2.3 mph - N/A   Clear
8:50 AM 50.0 °F - 44.6 °F 82% 30.06 in - Variable 1.2 mph - N/A   Clear
9:20 AM 53.6 °F - 44.6 °F 72% 30.06 in - Variable 1.2 mph - N/A   Clear
10:20 AM 57.2 °F - 48.2 °F 72% 30.09 in - SSE 3.5 mph - N/A   Clear
10:50 AM 59.0 °F - 46.4 °F 63% 30.09 in - Variable 2.3 mph - N/A   Clear
11:20 AM 60.8 °F - 48.2 °F 63% 30.09 in - Variable 3.5 mph - N/A   Clear
11:50 AM 62.6 °F - 48.2 °F 59% 30.09 in - Variable 3.5 mph - N/A   Clear
12:20 PM 64.4 °F - 48.2 °F 56% 30.09 in - Variable 3.5 mph - N/A   Clear
12:50 PM 64.4 °F - 48.2 °F 56% 30.09 in - SSE 3.5 mph - N/A   Clear
1:20 PM 66.2 °F - 48.2 °F 52% 30.09 in - ESE 3.5 mph - N/A   Clear
1:50 PM 68.0 °F - 48.2 °F 49% 30.09 in - Variable 2.3 mph - N/A   Clear
2:00 PM 67 °F - 46 °F 36%  in 47 mi East 2.2 mph - -   Partly Cloudy
2:20 PM 68.0 °F - 46.4 °F 46% 30.09 in - SSE 5.8 mph - N/A   Clear
2:50 PM 68.0 °F - 50.0 °F 52% 30.09 in - South 5.8 mph - N/A   Clear
3:20 PM 68.0 °F - 50.0 °F 52% 30.09 in - South 5.8 mph - N/A   Clear
3:50 PM 69.8 °F - 50.0 °F 49% 30.09 in - South 9.2 mph - N/A   Clear
4:20 PM 69.8 °F - 48.2 °F 46% 30.09 in - SE 9.2 mph - N/A   Clear
4:50 PM 68.0 °F - 48.2 °F 49% 30.09 in - SSW 8.1 mph - N/A   Clear
5:20 PM 66.2 °F - 50.0 °F 56% 30.09 in - SSW 8.1 mph - N/A   Clear
5:50 PM 68.0 °F - 50.0 °F 52% 30.09 in - SSW 8.1 mph - N/A   Clear
6:20 PM 69.8 °F - 50.0 °F 49% 30.09 in - South 9.2 mph - N/A   Clear
6:50 PM 68.0 °F - 50.0 °F 52% 30.09 in - SW 9.2 mph - N/A   Clear
7:20 PM 66.2 °F - 51.8 °F 60% 30.09 in - SW 8.1 mph - N/A   Clear
7:50 PM 64.4 °F - 51.8 °F 64% 30.09 in - SW 5.8 mph - N/A   Clear
8:00 PM 64 °F - 51 °F 54%  in 47 mi SSW 6.7 mph - -   Partly Cloudy
8:20 PM 60.8 °F - 51.8 °F 72% 30.09 in - SW 6.9 mph - N/A   Clear
8:50 PM 60.8 °F - 50.0 °F 68% 30.12 in - SW 6.9 mph - N/A   Clear
9:20 PM 59.0 °F - 50.0 °F 72% 30.12 in - SSW 5.8 mph - N/A   Clear
9:50 PM 59.0 °F - 51.8 °F 77% 30.12 in - SW 6.9 mph - N/A   Clear
10:20 PM 57.2 °F - 51.8 °F 82% 30.12 in - SSW 6.9 mph - N/A   Clear
10:50 PM 55.4 °F - 51.8 °F 88% 30.12 in - SSW 5.8 mph - N/A   Clear
11:20 PM 55.4 °F - 51.8 °F 88% 30.12 in 6.2 mi South 8.1 mph - N/A   Scattered Clouds
11:50 PM 57.2 °F - 55.4 °F 94% 30.12 in 6.2 mi South 9.2 mph - N/A   Mostly Cloudy